[[{"header":{"parameterUnit":"m.s-1","parameterCategory":1,"la1":30.2991,"la2":30.254,"lo1":-89.0895,"lo2":-89.0444,"dy":0.0017,"dx":0.0017,"nx":28,"ny":28,"refTime":"2025-03-25T03:00:00:Z","depth":0,"parameterNumber":2,"parameterNumberName":"U-component_of_WINDS"},"data":[0,0,0,0,0,0,0,0,0,0,0,0,0,0,0,0,0,0,0,0,0,0,0,0,0,0,0,0,0,0,0,0,0,0,0,0,0,0,0,0,0,0,0,0,0,0,0,0,0,0,0,0,0,0,0,0,0,0,-1.3353,-1.3352,0,-1.3304,-1.3304,-1.3303,-1.3218,-1.3216,-1.3215,-1.3213,-1.3164,-1.3164,-1.3164,0,0,0,0,0,0,0,0,0,0,0,0,0,-1.3375,-1.3375,-1.3353,-1.3352,-1.3352,-1.3304,-1.3304,-1.3303,-1.3218,-1.3216,-1.3214,-1.3213,-1.3164,-1.3164,-1.3164,0,0,0,0,0,0,0,0,0,0,0,0,0,-1.335,-1.3375,-1.3353,-1.3304,-1.3299,-1.3304,-1.3303,-1.3303,-1.3219,-1.3216,-1.3214,-1.3212,-1.3164,-1.3164,-1.3164,-1.3214,0,0,-1.3165,-1.3165,0,0,0,0,0,0,0,0,-1.3351,-1.3349,-1.3312,-1.3307,-1.3302,-1.3265,-1.3293,-1.3273,-1.3219,-1.3249,-1.3213,-1.3211,-1.3199,-1.3197,-1.3193,-1.3212,-1.321,-1.3165,-1.3165,-1.3165,-1.3166,0,0,0,0,0,0,0,-1.3353,-1.3351,-1.3334,-1.3311,-1.3305,-1.3285,-1.3279,-1.3289,-1.3238,-1.3246,-1.324,-1.3236,-1.3196,-1.3193,-1.3191,-1.3209,-1.3165,-1.3165,-1.3166,-1.3166,-1.3269,-1.3271,0,0,0,0,0,0,-1.3362,-1.3353,-1.3335,-1.3332,-1.3321,-1.3286,-1.3279,-1.3279,-1.3238,-1.3229,-1.3238,-1.3232,-1.3193,-1.3191,-1.3189,-1.3246,-1.3165,-1.3166,-1.3166,-1.3266,-1.3269,-1.3272,0,0,0,0,0,0,-1.3363,-1.3361,-1.3337,-1.3341,-1.3336,-1.3289,-1.3289,-1.3279,-1.3276,-1.3231,-1.3222,-1.3243,-1.3191,-1.3189,-1.3209,-1.3243,-1.3166,-1.3166,-1.3263,-1.3267,-1.3271,-1.336,0,0,0,0,0,0,-1.3364,-1.3362,-1.338,-1.3342,-1.3336,-1.3358,-1.3291,-1.328,-1.3276,-1.3268,-1.3234,-1.3226,-1.3189,-1.3209,-1.3209,-1.3242,-1.3166,-1.326,-1.3265,-1.3269,-1.3353,-1.3366,-1.3377,0,0,0,0,0,-1.3365,-1.3406,-1.3381,-1.3379,-1.3357,-1.336,-1.3357,-1.3313,-1.3279,-1.3297,-1.3269,-1.3227,-1.3239,-1.3212,-1.3211,-1.3245,-1.3257,-1.3263,-1.3269,-1.3348,-1.3364,-1.3377,0,0,0,0,0,0,-1.3449,-1.34,-1.3372,-1.3402,-1.3386,-1.3345,-1.3367,-1.3331,-1.3323,-1.3316,-1.3263,-1.3256,-1.3284,-1.3266,-1.3236,-1.3292,-1.3242,-1.3248,-1.3302,-1.3317,-1.3328,-1.3332,-1.3166,0,0,0,0,0,-1.3472,-1.3477,-1.3434,-1.3465,-1.3459,-1.3415,-1.3414,-1.3382,-1.3363,-1.3355,-1.3328,-1.3312,-1.3312,-1.3313,-1.3311,-1.335,-1.3343,-1.3373,-1.3385,-1.3395,-1.3401,-1.3423,-1.3436,-1.3291,-1.3291,-1.3291,0,0,-1.3518,-1.3492,-1.3498,-1.3482,-1.3465,-1.3473,-1.3409,-1.3419,-1.3425,-1.3357,-1.3375,-1.3355,-1.3333,-1.3364,-1.3376,-1.335,-1.3439,-1.3402,-1.341,-1.3411,-1.343,-1.3444,-1.3456,-1.3295,-1.3294,-1.3293,0,0,-1.3606,-1.3586,-1.361,-1.3596,-1.3572,-1.3542,-1.3549,-1.3514,-1.3498,-1.3515,-1.3465,-1.3471,-1.3472,-1.3459,-1.3453,-1.3538,-1.35,-1.3539,-1.36,-1.3622,-1.3634,-1.3643,-1.3676,-1.3687,-1.3545,-1.3545,-1.3545,0,-1.3666,-1.3675,-1.3628,-1.3642,-1.3637,-1.3576,-1.3602,-1.3589,-1.3566,-1.3565,-1.3536,-1.3537,-1.3517,-1.3546,-1.3567,-1.3563,-1.357,-1.3542,-1.3636,-1.3645,-1.3654,-1.3684,-1.3696,-1.355,-1.3549,-1.3549,-1.3548,0,-1.3751,-1.3758,-1.3781,-1.3761,-1.3758,-1.3778,-1.3735,-1.3738,-1.3707,-1.3681,-1.3701,-1.3676,-1.3668,-1.3673,-1.3642,-1.3697,-1.3682,-1.3645,-1.3594,-1.3673,-1.3701,-1.3712,-1.3557,-1.3555,-1.3554,-1.3553,0,0,-1.389,-1.3845,-1.3854,-1.3845,-1.3815,-1.382,-1.3838,-1.383,-1.3835,-1.3821,-1.3836,-1.3839,-1.3806,-1.3799,-1.3766,-1.3785,-1.3857,-1.3746,-1.3745,-1.3769,-1.3918,-1.3947,-1.3961,-1.3831,-1.3833,-1.3835,-1.3921,0,-1.3973,-1.4,-1.3959,-1.3996,-1.4003,-1.3947,-1.3962,-1.3946,-1.3923,-1.3927,-1.3901,-1.3905,-1.3859,-1.3855,-1.3871,-1.3845,-1.3887,-1.3838,-1.3846,-1.3846,-1.3854,-1.3975,-1.4005,-1.4087,-1.3931,-1.3933,-1.3934,0,-1.4072,-1.4064,-1.4103,-1.4072,-1.4073,-1.4088,-1.4079,-1.4083,-1.4064,-1.4046,-1.4039,-1.4001,-1.4018,-1.3968,-1.3991,-1.3959,-1.396,-1.3948,-1.395,-1.395,-1.3896,-1.3979,-1.4111,-1.4125,-1.395,-1.3949,-1.3948,0,-1.4172,-1.4171,-1.4194,-1.4187,-1.4152,-1.4164,-1.415,-1.4129,-1.4128,-1.412,-1.4119,-1.4114,-1.4111,-1.4108,-1.4071,-1.4038,-1.4099,-1.4046,-1.4086,-1.4087,-1.4101,-1.4101,-1.4237,-1.4101,-1.41,-1.41,-1.41,0,-1.4269,-1.4295,-1.4238,-1.4253,-1.4281,-1.4234,-1.4263,-1.4243,-1.4225,-1.4236,-1.4186,-1.4197,-1.4146,-1.4152,-1.4122,-1.4147,-1.4146,-1.4132,-1.4124,-1.4137,-1.4139,-1.4138,-1.4131,-1.4103,-1.4103,-1.4102,-1.4101,0,-1.4385,-1.4348,-1.437,-1.4335,-1.4327,-1.4349,-1.432,-1.4332,-1.4306,-1.432,-1.4321,-1.428,-1.4285,-1.4247,-1.4244,-1.4224,-1.4263,-1.4244,-1.427,-1.4264,-1.4307,-1.4304,-1.4447,-1.4464,-1.4316,-1.4317,-1.4319,0,-1.445,-1.4469,-1.4436,-1.444,-1.4428,-1.4434,-1.4433,-1.4388,-1.4389,-1.437,-1.4386,-1.4386,-1.4384,-1.4394,-1.4365,-1.4363,-1.4345,-1.4396,-1.4345,-1.4358,-1.4348,-1.4348,-1.435,-1.4407,-1.4408,-1.441,-1.4411,0,-1.457,-1.4551,-1.4551,-1.4546,-1.4546,-1.4539,-1.4529,-1.4535,-1.4486,-1.4491,-1.4495,-1.4493,-1.4491,-1.4493,-1.4486,-1.4472,-1.4434,-1.4428,-1.4437,-1.4451,-1.4465,-1.4459,-1.43,-1.4424,-1.4423,-1.4422,-1.4421,-1.4421,-1.4663,-1.4678,-1.4658,-1.466,-1.4648,-1.4641,-1.4651,-1.4627,-1.4629,-1.4624,-1.4597,-1.4607,-1.459,-1.4576,-1.4566,-1.4574,-1.4549,-1.4562,-1.4566,-1.457,-1.4579,-1.4463,-1.4572,-1.4571,-1.4571,-1.4571,-1.457,0,-1.4781,-1.4766,-1.4769,-1.4757,-1.4759,-1.4723,-1.4711,-1.4716,-1.4725,-1.4711,-1.4711,-1.4717,-1.4719,-1.469,-1.4689,-1.4701,-1.4684,-1.4702,-1.4701,-1.4699,-1.46,-1.4592,-1.4716,-1.4716,-1.4716,-1.4716,-1.4716,-1.4716,-1.4843,-1.4867,-1.4846,-1.4864,-1.4848,-1.4857,-1.4853,-1.4847,-1.4836,-1.4845,-1.4846,-1.4828,-1.4809,-1.4806,-1.4807,-1.4799,-1.4801,-1.4826,-1.4812,-1.472,-1.4706,-1.4692,-1.4685,-1.4826,-1.4826,-1.4911,-1.4911,-1.4912]},{"header":{"parameterUnit":"m.s-1","parameterCategory":1,"la1":30.2991,"la2":30.254,"lo1":-89.0895,"lo2":-89.0444,"dy":0.0017,"dx":0.0017,"nx":28,"ny":28,"refTime":"2025-03-25T03:00:00:Z","depth":0,"parameterNumber":3,"parameterNumberName":"V-component_of_WINDS"},"data":[0,0,0,0,0,0,0,0,0,0,0,0,0,0,0,0,0,0,0,0,0,0,0,0,0,0,0,0,0,0,0,0,0,0,0,0,0,0,0,0,0,0,0,0,0,0,0,0,0,0,0,0,0,0,0,0,0,0,1.4195,1.4195,0,1.4158,1.4158,1.4157,1.4165,1.4166,1.4167,1.4167,1.4125,1.4124,1.4122,0,0,0,0,0,0,0,0,0,0,0,0,0,1.4269,1.4268,1.4195,1.4195,1.4194,1.4158,1.4158,1.4157,1.4165,1.4166,1.4167,1.4168,1.4126,1.4124,1.4122,0,0,0,0,0,0,0,0,0,0,0,0,0,1.4235,1.4268,1.4195,1.4194,1.4194,1.4158,1.4158,1.4157,1.4165,1.4166,1.4167,1.4168,1.4127,1.4124,1.4121,1.4084,0,0,1.4113,1.4112,0,0,0,0,0,0,0,0,1.4237,1.4232,1.4195,1.4194,1.4193,1.4167,1.4168,1.4132,1.4165,1.4176,1.4167,1.4169,1.4138,1.4135,1.4125,1.4082,1.408,1.4113,1.4111,1.411,1.4109,0,0,0,0,0,0,0,1.4239,1.4234,1.418,1.4194,1.4193,1.4194,1.419,1.4162,1.4151,1.4175,1.4175,1.4171,1.4138,1.4128,1.4124,1.4079,1.4113,1.4111,1.4109,1.4108,1.4003,1.4001,0,0,0,0,0,0,1.4243,1.4236,1.4182,1.4179,1.4218,1.4192,1.4188,1.4175,1.4152,1.4149,1.417,1.4172,1.4132,1.4127,1.4123,1.4077,1.411,1.4108,1.4106,1.4004,1.4002,1.4001,0,0,0,0,0,0,1.4244,1.4238,1.4183,1.4208,1.4201,1.419,1.4175,1.4173,1.4163,1.4148,1.4146,1.4162,1.4132,1.4127,1.4094,1.4076,1.4107,1.4104,1.4005,1.4003,1.4002,1.3986,0,0,0,0,0,0,1.4247,1.4238,1.4225,1.4207,1.42,1.4156,1.4174,1.4172,1.4159,1.416,1.414,1.4137,1.4133,1.4098,1.4091,1.4073,1.4102,1.4007,1.4004,1.4002,1.3988,1.3983,1.398,0,0,0,0,0,1.4249,1.4221,1.4224,1.4218,1.4183,1.4155,1.415,1.4146,1.4158,1.4143,1.4134,1.4138,1.4079,1.4094,1.4087,1.4067,1.4008,1.4005,1.4002,1.3989,1.3984,1.398,0,0,0,0,0,0,1.4236,1.4219,1.4222,1.4188,1.4173,1.4156,1.4138,1.4141,1.4122,1.4124,1.4119,1.4114,1.408,1.407,1.4088,1.4029,1.4045,1.404,1.4037,1.4032,1.4029,1.4031,1.41,0,0,0,0,0,1.4229,1.4209,1.4195,1.4166,1.4158,1.4149,1.4137,1.4136,1.4119,1.4113,1.41,1.4083,1.4061,1.4046,1.4024,1.3986,1.3981,1.3969,1.3965,1.3962,1.3958,1.3937,1.3931,1.3992,1.3992,1.3992,0,0,1.4214,1.4203,1.419,1.4163,1.4151,1.4129,1.4144,1.412,1.4103,1.4108,1.4077,1.4067,1.4048,1.4012,1.3996,1.4003,1.3941,1.3959,1.3956,1.3954,1.3934,1.3928,1.3923,1.399,1.3991,1.3991,0,0,1.4177,1.4166,1.4141,1.4129,1.4111,1.4105,1.4099,1.4082,1.4076,1.4045,1.4048,1.4028,1.3989,1.3975,1.3963,1.392,1.3923,1.3913,1.3892,1.3871,1.3867,1.3862,1.3847,1.3841,1.3909,1.3909,1.3909,0,1.4161,1.4129,1.4127,1.4103,1.4091,1.4095,1.4069,1.4057,1.4033,1.4023,1.4032,1.3984,1.3971,1.3932,1.3921,1.3911,1.3903,1.3915,1.3868,1.3863,1.3859,1.3844,1.3838,1.3908,1.3908,1.3908,1.3908,0,1.411,1.4088,1.4069,1.4047,1.4032,1.4007,1.4,1.3985,1.3985,1.3978,1.3946,1.393,1.3906,1.3896,1.3895,1.3857,1.3862,1.3869,1.3884,1.3852,1.3838,1.3832,1.3906,1.3907,1.3907,1.3907,0,0,1.4062,1.404,1.4033,1.4023,1.4003,1.3986,1.396,1.3937,1.3925,1.3907,1.3885,1.3853,1.3859,1.3846,1.3843,1.3825,1.3791,1.3834,1.3834,1.3826,1.3747,1.3742,1.3735,1.3793,1.3792,1.3791,1.3749,0,1.4023,1.398,1.3977,1.3937,1.3916,1.3921,1.3898,1.3883,1.3876,1.3856,1.3848,1.3825,1.3836,1.3827,1.3809,1.3799,1.3775,1.3802,1.3772,1.3771,1.3777,1.3728,1.3722,1.3683,1.3743,1.3742,1.3741,0,1.3971,1.3954,1.3912,1.3896,1.3887,1.3867,1.3846,1.3827,1.381,1.3806,1.3791,1.3791,1.3763,1.378,1.3741,1.376,1.3747,1.374,1.3739,1.3735,1.3754,1.3723,1.367,1.3664,1.3733,1.3733,1.3734,0,1.3941,1.3906,1.3877,1.3868,1.3848,1.3834,1.3825,1.3809,1.3796,1.3777,1.3768,1.3745,1.3733,1.3715,1.3708,1.3721,1.367,1.3686,1.3665,1.3665,1.3654,1.3655,1.3598,1.3646,1.3646,1.3646,1.3646,0,1.3897,1.3871,1.3863,1.3845,1.3816,1.3813,1.3784,1.3776,1.3761,1.3741,1.3743,1.3723,1.3716,1.3695,1.3689,1.3658,1.3653,1.3648,1.3647,1.3648,1.3648,1.3639,1.3642,1.3645,1.3645,1.3645,1.3646,0,1.3858,1.3852,1.382,1.3804,1.3799,1.3779,1.3764,1.3746,1.374,1.3714,1.3707,1.3696,1.3671,1.3663,1.3633,1.3629,1.3593,1.3594,1.36,1.3599,1.3579,1.3581,1.3515,1.3506,1.3559,1.3559,1.3558,0,1.383,1.3811,1.3793,1.378,1.377,1.3749,1.3736,1.3731,1.3717,1.3696,1.368,1.3656,1.3637,1.3597,1.3585,1.3562,1.3562,1.3541,1.3559,1.3561,1.3562,1.3563,1.3561,1.3537,1.3537,1.3536,1.3536,0,1.3782,1.378,1.3761,1.374,1.3724,1.3708,1.3692,1.3681,1.3674,1.3658,1.3633,1.3618,1.3588,1.3564,1.354,1.3529,1.3531,1.353,1.3524,1.3525,1.3529,1.3527,1.359,1.3532,1.3532,1.3533,1.3533,1.3533,1.3747,1.373,1.3715,1.3694,1.3682,1.3667,1.3649,1.364,1.362,1.3596,1.3595,1.3568,1.355,1.3519,1.3507,1.3486,1.3492,1.3483,1.348,1.3478,1.3477,1.3533,1.3481,1.3481,1.3481,1.3481,1.3481,0,1.3699,1.369,1.367,1.3648,1.3631,1.3636,1.3618,1.3603,1.358,1.3565,1.3546,1.3517,1.3494,1.348,1.3457,1.3442,1.3442,1.3436,1.3437,1.3434,1.3473,1.3481,1.3436,1.3436,1.3436,1.3436,1.3436,1.3436,1.3672,1.3643,1.3639,1.3604,1.3595,1.357,1.3559,1.3545,1.3533,1.3501,1.3482,1.3474,1.3459,1.3434,1.3412,1.3409,1.34,1.3393,1.339,1.3427,1.3431,1.3436,1.3443,1.3391,1.3391,1.3353,1.3353,1.3353]}]]